Regional Weather Roundup
Issued by NWS

Home | Current Version | Previous Version | Text Only | Print | Product List | Glossary On
Versions: 1 2 3 4 5 6 7 8 9 10 11 12 13 14 15 16 17 18 19 20 21 22 23 24 25 26 27 28 29 30 31 32 33 34 35 36 37 38 39 40 41 42 43 44 45 46 47 48 49 50
000
ASUS43 KDTX 281810
RWRMI
MICHIGAN HOURLY REGIONAL WEATHER ROUNDUP
NATIONAL WEATHER SERVICE DETROIT/PONTIAC MI
200 PM EDT SAT MAR 28 2015

NOTE: "FAIR" INDICATES FEW OR NO CLOUDS BELOW 12,000 FEET WITH NO
SIGNIFICANT WEATHER AND/OR OBSTRUCTION TO VISIBILITY.

MIZ047>049-052>055-059>063-066>070-074>076-081>083-281900-
SOUTHEAST LOWER MICHIGAN

CITY           SKY/WX    TMP DP  RH WIND       PRES   REMARKS
ADRIAN         SUNNY     31  10  41 N7        30.29F
6HR MIN TEMP:  15; 6HR MAX TEMP:  31;

ALMA           SUNNY     31   4  32 N3        30.31S
ANN ARBOR      SUNNY     33   8  35 VRB5      30.28F
BAD AXE        PTSUNNY   26  13  59 N8        30.29S
6HR MIN TEMP:  20; 6HR MAX TEMP:  26;

DETROIT CITY   MOSUNNY   34  10  37 N8G17     30.29S
6HR MIN TEMP:  20; 6HR MAX TEMP:  34; 6HR PCP: TRACE;

DETROIT        MOSUNNY   32   9  38 NW10      30.29F
6HR MIN TEMP:  19; 6HR MAX TEMP:  34; 6HR PCP: TRACE;

FLINT          SUNNY     33   7  33 N13       30.28F
6HR MIN TEMP:  15; 6HR MAX TEMP:  33;

GROSSE ILE     MOSUNNY   30   9  40 NW3       30.27F
HILLSDALE      SUNNY     31   5  33 NW5       30.26F
6HR MIN TEMP:  13; 6HR MAX TEMP:  31;

HOWELL         SUNNY     30   8  39 NW8       30.27S
6HR MIN TEMP:  15; 6HR MAX TEMP:  30;


CITY           SKY/WX    TMP DP  RH WIND       PRES   REMARKS
JACKSON        SUNNY     31   6  35 NW9G20    30.27F
6HR MIN TEMP:  12; 6HR MAX TEMP:  31;

LAMBERTVILLE   MOSUNNY   32  12  43 NE5       30.29F
LANSING        SUNNY     31   7  36 VRB6      30.30F
6HR MIN TEMP:  12; 6HR MAX TEMP:  32;

LAPEER         NOT AVBL
MASON          SUNNY     30   7  38 CALM      30.28F
MONROE         PTSUNNY   28  10  47 NW8       30.28S
MT. CLEMENS    MOSUNNY   30  12  46 N10       30.25F
6HR MIN TEMP:  17; 6HR MAX TEMP:  30;

PONTIAC        MOSUNNY   31   9  39 N9        30.25F
6HR MIN TEMP:  16; 6HR MAX TEMP:  31; 6HR PCP: TRACE;

PORT HOPE        N/A     29  13  51 N6        30.28S
6HR MIN TEMP:  22; 6HR MAX TEMP:  29;

PORT HURON     MOSUNNY   28  14  54 NW7       30.27F
TRI CITIES     SUNNY     32   8  36 N6        30.30F
6HR MIN TEMP:  15; 6HR MAX TEMP:  32;

YPSILANTI      MOSUNNY   36   9  32 N15       30.28F
6HR MIN TEMP:  20; 6HR MAX TEMP:  36;

$$
MIZ043>046-050>051-056>058-064>065-071>073-077>080-281900-
SOUTHWEST LOWER MICHIGAN

CITY           SKY/WX    TMP DP  RH WIND       PRES   REMARKS
BATTLE CREEK   SUNNY     32   4  30 W7        30.30F
6HR MIN TEMP:  13; 6HR MAX TEMP:  32;

BENTON HARBOR  SUNNY     26  10  50 NW8       30.34F
6HR MIN TEMP:  10; 6HR MAX TEMP:  27;

BIG RAPIDS     SUNNY     32   2  28 NW3       30.27F
6HR MIN TEMP:   9; 6HR MAX TEMP:  32;

COLDWATER      SUNNY     32   5  32 NW3       30.29F
6HR MIN TEMP:  13; 6HR MAX TEMP:  32;

HOLLAND        SUNNY     30   8  39 VRB6      30.33F
6HR MIN TEMP:  15; 6HR MAX TEMP:  31;

GRAND RAPIDS   SUNNY     30   3  31 VRB5      30.31F
6HR MIN TEMP:  14; 6HR MAX TEMP:  32;

KALAMAZOO      SUNNY     33   2  26 NE7       30.31F
6HR MIN TEMP:  13; 6HR MAX TEMP:  33;

MARSHALL       SUNNY     30   5  33 CALM      30.29S
MUSKEGON       SUNNY     29   4  34 W12       30.34S
6HR MIN TEMP:  14; 6HR MAX TEMP:  30;

$$
MIZ016>042-281900-
NORTHERN LOWER MICHIGAN

CITY           SKY/WX    TMP DP  RH WIND       PRES   REMARKS
ALPENA         SUNNY     31   6  35 VRB6      30.27F
6HR MIN TEMP:   9; 6HR MAX TEMP:  31;

BEAVER ISLAND  SUNNY     26  13  57 SW8       30.30F
6HR MIN TEMP:   3; 6HR MAX TEMP:  27;

BELLAIRE       SUNNY     29   3  33 W8        30.31F
6HR MIN TEMP:   5; 6HR MAX TEMP:  29;

CADILLAC       SUNNY     32   1  26 W7        30.24F
CHARLEVOIX     SUNNY     26   9  47 NW9       30.34F
6HR MIN TEMP:   7; 6HR MAX TEMP:  27;

FRANKFORT      CLEAR     30   5  35 W8        30.33S
GAYLORD        SUNNY     25   5  42 SW6       30.24F
6HR MIN TEMP:   2; 6HR MAX TEMP:  25;

GRAYLING       SUNNY     31   4  31 NW9       30.25F
6HR MIN TEMP:   4; 6HR MAX TEMP:  31;

HARBOR SPRINGS SUNNY     25   7  47 SW9       30.30F
HOUGHTON LAKE  SUNNY     29   4  34 SW7       30.26F
6HR MIN TEMP:   6; 6HR MAX TEMP:  29;

MANISTEE       SUNNY     28   0  29 NW10      30.33F
OSCODA         SUNNY     30  12  47 E7        30.27F
PELLSTON       SUNNY     29   7  39 NW8       30.29F
6HR MIN TEMP:   1; 6HR MAX TEMP:  29;

TRAVERSE CITY  SUNNY     29   7  39 NE7       30.30F
6HR MIN TEMP:   7; 6HR MAX TEMP:  29;

$$
MIZ007>008-015-281900-
EASTERN UPPER MICHIGAN

CITY           SKY/WX    TMP DP  RH WIND       PRES   REMARKS
KINROSS        SUNNY     34   5  29 W7        30.25F
6HR MIN TEMP:   1; 6HR MAX TEMP:  34;

MACKINAC ISLAN SUNNY     24   6  46 W13       30.29S
6HR MIN TEMP:   7; 6HR MAX TEMP:  24;

NEWBERRY       SUNNY     27   4  37 W5        30.25F
S. S. MARIE    SUNNY     27   6  41 NW9       30.25F
6HR MIN TEMP:   3; 6HR MAX TEMP:  27;

$$
MIZ004>006-011>014-085-281900-
CENTRAL UPPER MICHIGAN

CITY           SKY/WX    TMP DP  RH WIND       PRES   REMARKS
MANISTIQUE     SUNNY     26  16  67 S10G16    30.28F
6HR MIN TEMP:   0; 6HR MAX TEMP:  26;

ESCANABA       SUNNY     27  12  54 S12       30.28F
6HR MIN TEMP:   0; 6HR MAX TEMP:  27;

MENOMINEE      SUNNY     32  12  43 SW9       30.28F
6HR MIN TEMP:   9; 6HR MAX TEMP:  32;

SAWYER-GWINN   SUNNY     30   1  29 SW9       30.21F
$$
MIZ001>003-009>011-084-281900-
WESTERN UPPER MICHIGAN

CITY           SKY/WX    TMP DP  RH WIND       PRES   REMARKS
IRON MOUNTAIN  SUNNY     33   7  33 SE7       30.20F
6HR MIN TEMP:   0; 6HR MAX TEMP:  33;

HOUGHTON       SUNNY     32   3  29 S5        30.18F
6HR MIN TEMP:  -5; 6HR MAX TEMP:  32;

COPPER HARBOR    N/A     28   9  44 NE5       30.21F
6HR MIN TEMP:   1; 6HR MAX TEMP:  29;

IRONWOOD       SUNNY     37   9  30 S12       30.15F
6HR MIN TEMP:   3; 6HR MAX TEMP:  37;

$$

ABBREVIATIONS USED IN REMARKS
   TC - TEMPERATURE IN CELSIUS
  WCI - WIND CHILL INDEX
   HX - HEAT INDEX
  VSB - VISIBILITY




USA.gov is the U.S. government's official web portal to all federal, state and local government web resources and services.